TimeEDT,TemperatureF,Dew PointF,Humidity,Sea Level PressureIn,VisibilityMPH,Wind Direction,Wind SpeedMPH,Gust SpeedMPH,PrecipitationIn,Events,Conditions,WindDirDegrees,DateUTC
12:03 AM,73.4,71.6,94,30.19,8.0,NW,3.5,-,0.00,Rain-Thunderstorm,Light Rain,310,2013-07-18 04:03:00
12:40 AM,73.4,71.6,94,30.19,9.0,North,3.5,-,0.01,,Overcast,360,2013-07-18 04:40:00
12:53 AM,73.9,72.0,93,30.19,6.0,NNE,3.5,-,0.01,,Overcast,20,2013-07-18 04:53:00
1:53 AM,73.9,72.0,93,30.17,10.0,NW,4.6,-,N/A,,Overcast,320,2013-07-18 05:53:00
2:53 AM,72.0,71.1,97,30.14,10.0,Calm,Calm,-,N/A,,Clear,0,2013-07-18 06:53:00
3:10 AM,71.6,71.6,100,30.14,8.0,Calm,Calm,-,N/A,,Scattered Clouds,0,2013-07-18 07:10:00
3:53 AM,72.0,71.1,97,30.14,9.0,Calm,Calm,-,N/A,,Clear,0,2013-07-18 07:53:00
4:06 AM,71.6,71.6,100,30.14,9.0,Calm,Calm,-,N/A,,Scattered Clouds,0,2013-07-18 08:06:00
4:53 AM,71.1,70.0,96,30.12,8.0,Calm,Calm,-,N/A,,Clear,0,2013-07-18 08:53:00
5:53 AM,71.1,69.1,93,30.13,9.0,North,3.5,-,N/A,,Clear,350,2013-07-18 09:53:00
6:53 AM,69.1,68.0,96,30.14,10.0,Calm,Calm,-,0.01,,Clear,0,2013-07-18 10:53:00
7:53 AM,73.0,71.1,93,30.15,10.0,Calm,Calm,-,N/A,,Clear,0,2013-07-18 11:53:00
8:53 AM,75.9,71.1,85,30.18,10.0,Calm,Calm,-,N/A,,Clear,0,2013-07-18 12:53:00
9:53 AM,79.0,71.1,77,30.17,10.0,Calm,Calm,-,N/A,,Clear,0,2013-07-18 13:53:00
10:53 AM,81.0,72.0,74,30.16,10.0,Calm,Calm,-,N/A,,Clear,0,2013-07-18 14:53:00
11:53 AM,84.9,73.9,69,30.16,10.0,Variable,3.5,-,N/A,,Partly Cloudy,0,2013-07-18 15:53:00
12:53 PM,86.0,72.0,63,30.15,10.0,West,3.5,-,N/A,,Scattered Clouds,260,2013-07-18 16:53:00
1:53 PM,87.1,73.0,63,30.14,10.0,Calm,Calm,-,N/A,,Scattered Clouds,0,2013-07-18 17:53:00
2:53 PM,86.0,73.0,65,30.12,10.0,SE,8.1,-,N/A,,Scattered Clouds,130,2013-07-18 18:53:00
3:53 PM,88.0,73.0,61,30.09,10.0,Calm,Calm,-,0.00,,Scattered Clouds,0,2013-07-18 19:53:00
4:53 PM,89.1,73.0,59,30.07,10.0,WSW,4.6,-,N/A,,Partly Cloudy,240,2013-07-18 20:53:00
5:53 PM,87.1,73.9,65,30.06,10.0,ESE,4.6,-,N/A,,Partly Cloudy,120,2013-07-18 21:53:00
6:53 PM,88.0,73.0,61,30.05,10.0,SSW,3.5,-,N/A,,Partly Cloudy,210,2013-07-18 22:53:00
7:53 PM,84.9,75.0,72,30.07,10.0,SE,3.5,-,N/A,,Clear,130,2013-07-18 23:53:00
8:53 PM,80.1,77.0,90,30.08,10.0,Calm,Calm,-,0.01,,Clear,0,2013-07-19 00:53:00
9:53 PM,78.1,75.9,93,30.10,10.0,Calm,Calm,-,N/A,,Clear,0,2013-07-19 01:53:00
10:53 PM,75.9,75.0,97,30.11,7.0,Calm,Calm,-,N/A,,Clear,0,2013-07-19 02:53:00
11:53 PM,75.9,75.0,97,30.11,7.0,Calm,Calm,-,0.00,,Clear,0,2013-07-19 03:53:00